Sentinel-1C

operational
NORAD ID: 62261 Int'l Des: 2024-235 Owner: COPERN/ESA Country: I-EU
LEOCIRCULARRETROGRADESSO

About Sentinel-1C

Description loading...

Live Position

Loading 3D Globe...

Upcoming Passes

Altitude History

Altitude vs Time

uPlot chart will show altitude changes over time

Two-Line Element Set

1 62261U 24235A 25312.25831140 .00000270 00000-0 67030-4 0 9999
2 62261 98.1820 317.7442 0001298 89.0789 271.0559 14.59201777 49191
Epoch: Nov 8, 2025 • Age: 71 hours

Current Status

Altitude 713.3 km
Velocity 7.50 km/s
Sub-Earth Point -44.27°S, 153.34°W
Launch Date Dec 5, 2024
Age 0.9 years
Type earth observation

Technical Details

Classification Payload
Mass 2157.00 kg
Dry Mass 2027.00 kg
Total Mass 2157.00 kg
Length 3.42 m
Diameter 1.60 m
Span 21.04 m
Shape Box + 4 pan
Manufacturer THALES
Bus Type PRIMA
Phase Status In Orbit
Owner/State COPERN/ESA/I-EU

Large Constellations

Loading constellations...